STARLINK-33674, 63329

Orbit data source: Space-Track

STARLINK-33674, 63329 is a payload satellite owned by SpaceX/Seattle (US) in LEO that was launched on Tue, 18 Mar 2025 UTC via an FALCON 9 launch vehicle from the Air Force Eastern Test Range (AFETR). Payload-class satellites include a variety of spacecraft equipped with specific instruments for various scientific and technological missions. These include communications satellites like Starlink; space stations such as the ISS; scientific satellites like the Hubble; Earth observation satellites from companies like Planet Labs, Umbra, and HawkEye 360; GPS; miniature CubeSats for education and research; and military/defense satellites.

Loading next visibility...
Identifier
63329, 2025-057Y
Orbit
LEO
Last TLE update
10 hours ago
Origin
Manufacturer
SpaceX/Seattle
Mission
Operational Commercial Communications
Bus & Motor
STARLINK V2MO, Unknown motor
Mass
575 kg wet, ~530 kg dry
Launch date (UTC)
2025-03-18 (2 months ago)
Launch vehicle
FALCON 9
Launch site
Air Force Eastern Test Range (AFETR)
Object type
Payload
Rocket body
Debris
Shape & HBR
Box + 1 Pan, 29 m
Radar Cross Section
41.120 m², Large (>1 m²)

Expand to show TLE details & history

TLE from 10 hours ago
0 STARLINK-33674
1 63329U 25057Y   25128.83827166  .00004709  00000-0  18037-3 0  9993
2 63329  43.0016 312.5507 0002624 257.6085 102.4473 15.27610048  9159
Epoch: 2025-05-08T20:07Z
Definitive object data (Epoch: 2025-05-08T20:07:06.671Z)
Latitude
-0.00002°
Longitude
143.86986°
Altitude
483.123 km
Speed
7.625 km/s
True Right ascension
20h 50m 12s
True Declination
0° 00' 00"
Sunlit
Object was in daylight at TLE epoch
Visualization TLE readout
Latitude
42.95838°
Longitude
-135.22942°
Altitude
487.849 km
Speed
7.626 km/s
Apparent Right ascension
02h 08m 28s
Apparent Declination
3° 22' 35"
Sunlit
Object is in daylight
Visualization observer readout
Local Sidereal Time
14:03:00
Azimuth
358.009° N
Elevation
-46.689°
Doppler factor
1
Orbital elements
Apogee altitude
486.705 km
Perigee altitude
483.103 km
Semi-major axis
6,863.041 km
Eccentricity
0.0002624
Inclination
43.0016°
RAAN
312.5507°
Arg. of periapsis
257.6085°
True anomaly
102.47666°
Mean anomaly
102.4473°
Eccentric anomaly
102.46198°
Mean motion
3.81741 °/min
BSTAR
0.00018037
Orbital period
94.3 mins
Loading maneuver chart data...
Loading SW <> Apogee altitude chart data...
Loading historical data...
Loading historical data...
Loading historical data...
Loading historical data...
Loading historical data...
Loading historical data...
Loading historical data...

STARLINK-33674 Visibility forecast

Observer location: undefined°, undefined°

Span
Click to sort rows by Start time (UTC) header in descending order
Start Az.
Max El. time (UTC)
Max El. Az.
Max El.
End time (UTC)
End Az.
6 mins2025-05-09 15:08:15.568Z208.068° SW2025-05-09 15:11:15.568Z153.226° SSE25.627°2025-05-09 15:14:15.568Z90.733° ESE
5 mins2025-05-09 16:48:15.568Z260.856° W2025-05-09 16:50:15.568Z4.771° NNE44.257°2025-05-09 16:53:15.568Z70.238° E
5 mins2025-05-09 18:27:15.568Z293.852° NW2025-05-09 18:29:15.568Z356.132° N38.075°2025-05-09 18:32:15.568Z76.245° E
5 mins2025-05-09 20:06:15.568Z286.747° WNW2025-05-09 20:08:15.568Z264.08° W44.404°2025-05-09 20:11:15.568Z112.084° ESE
4 mins2025-05-09 21:45:15.568Z252° W2025-05-09 21:47:15.568Z210.803° SW19.417°2025-05-09 21:49:15.568Z173.123° S
|